Location: Boussy-Saint-Antoine
(48.6830°N, 2.5330°E)
Time: 19:50:17
(UTC+02:00)

Tiangong 2 - Visible Passes

Search period start: 20 May 2019 00:00
Search period end: 30 May 2019 00:00
Orbit: 379 x 387 km, 42.8° (Epoch: 20 May)

Date Brightness Start Highest point End Pass type
(mag) Time Alt. Az. Time Alt. Az. Time Alt. Az.
20 May 2.6 22:58:21 10° SSW 23:00:27 19° SSE 23:00:27 19° SSE visible
21 May 2.5 23:34:17 10° SW 23:36:04 22° SSW 23:36:04 22° SSW visible
22 May 2.3 22:34:33 10° SW 22:37:07 23° SSE 22:39:08 13° ESE visible
23 May 3.4 00:10:40 10° WSW 00:11:20 14° WSW 00:11:20 14° WSW visible
23 May 2.1 23:10:45 10° WSW 23:13:28 27° S 23:14:10 25° SSE visible
24 May 2.2 22:10:54 10° SW 22:13:35 26° S 22:16:16 10° ESE visible
24 May 2.7 23:47:16 10° WSW 23:49:04 21° SW 23:49:04 21° SW visible
25 May 2.3 22:47:15 10° WSW 22:49:56 26° S 22:51:40 16° SE visible
26 May 2.8 23:23:58 10° WSW 23:26:14 18° SSW 23:26:25 18° SSW visible
27 May 2.5 22:23:48 10° WSW 22:26:22 23° SSW 22:28:55 10° SE visible
28 May 3.2 23:00:51 10° SW 23:02:34 14° SSW 23:03:38 12° S visible
